Time,TemperatureF,DewpointF,PressureIn,WindDirection,WindDirectionDegrees,WindSpeedMPH,WindSpeedGustMPH,Humidity,HourlyPrecipIn,Conditions,Clouds,dailyrainin,SoftwareType,DateUTC
2013-07-18 00:02:00,78.0,-99.9,-100.00,North,-999,-999.0,-999.0,-999,0.00,,,0.00,,2013-07-18 04:02:00,
2013-07-18 00:12:00,78.0,-99.9,-100.00,North,-999,-999.0,-999.0,-999,0.00,,,0.00,,2013-07-18 04:12:00,
2013-07-18 00:52:00,76.0,-99.9,-100.00,North,-999,-999.0,-999.0,-999,0.00,,,0.00,,2013-07-18 04:52:00,
2013-07-18 01:02:00,76.0,-99.9,-100.00,North,-999,-999.0,-999.0,-999,0.00,,,0.00,,2013-07-18 05:02:00,
2013-07-18 01:11:00,76.0,-99.9,-100.00,North,-999,-999.0,-999.0,-999,0.00,,,0.00,,2013-07-18 05:11:00,
2013-07-18 02:52:00,74.0,-99.9,-100.00,North,-999,-999.0,-999.0,-999,-99.99,,,0.00,,2013-07-18 06:52:00,
2013-07-18 03:02:00,74.0,-99.9,-100.00,North,-999,-999.0,-999.0,-999,-99.99,,,0.00,,2013-07-18 07:02:00,
2013-07-18 03:12:00,74.0,-99.9,-100.00,North,-999,-999.0,-999.0,-999,-99.99,,,0.00,,2013-07-18 07:12:00,
2013-07-18 04:52:00,72.0,-99.9,-100.00,North,-999,-999.0,-999.0,-999,-99.99,,,0.00,,2013-07-18 08:52:00,
2013-07-18 05:01:00,72.0,-99.9,-100.00,North,-999,-999.0,-999.0,-999,-99.99,,,0.00,,2013-07-18 09:01:00,
2013-07-18 05:11:00,72.0,-99.9,-100.00,North,-999,-999.0,-999.0,-999,-99.99,,,0.00,,2013-07-18 09:11:00,
2013-07-18 06:52:00,69.0,-99.9,-100.00,North,-999,-999.0,-999.0,-999,-99.99,,,-99.99,,2013-07-18 10:52:00,
2013-07-18 07:02:00,69.0,-99.9,-100.00,North,-999,-999.0,-999.0,-999,-99.99,,,-99.99,,2013-07-18 11:02:00,
2013-07-18 07:12:00,69.0,-99.9,-100.00,North,-999,-999.0,-999.0,-999,-99.99,,,-99.99,,2013-07-18 11:12:00,
2013-07-18 07:52:00,74.0,-99.9,-100.00,North,-999,-999.0,-999.0,-999,0.00,,,0.00,,2013-07-18 11:52:00,
2013-07-18 08:02:00,74.0,-99.9,-100.00,North,-999,-999.0,-999.0,-999,0.00,,,0.00,,2013-07-18 12:02:00,
2013-07-18 08:11:00,74.0,-99.9,-100.00,North,-999,-999.0,-999.0,-999,0.00,,,0.00,,2013-07-18 12:11:00,
2013-07-18 08:52:00,77.0,-99.9,-100.00,North,-999,-999.0,-999.0,-999,0.00,,,0.00,,2013-07-18 12:52:00,
2013-07-18 09:01:00,77.0,-99.9,-100.00,North,-999,-999.0,-999.0,-999,0.00,,,0.00,,2013-07-18 13:01:00,
2013-07-18 09:11:00,77.0,-99.9,-100.00,North,-999,-999.0,-999.0,-999,0.00,,,0.00,,2013-07-18 13:11:00,
2013-07-18 09:53:00,80.0,-99.9,-100.00,North,-999,-999.0,-999.0,-999,0.00,,,0.00,,2013-07-18 13:53:00,
2013-07-18 10:03:00,80.0,-99.9,-100.00,North,-999,-999.0,-999.0,-999,0.00,,,0.00,,2013-07-18 14:03:00,
2013-07-18 10:12:00,80.0,-99.9,-100.00,North,-999,-999.0,-999.0,-999,0.00,,,0.00,,2013-07-18 14:12:00,
2013-07-18 10:53:00,82.0,-99.9,-100.00,North,-999,-999.0,-999.0,-999,0.00,,,0.00,,2013-07-18 14:53:00,
2013-07-18 11:02:00,82.0,-99.9,-100.00,North,-999,-999.0,-999.0,-999,0.00,,,0.00,,2013-07-18 15:02:00,
2013-07-18 11:12:00,82.0,-99.9,-100.00,North,-999,-999.0,-999.0,-999,0.00,,,0.00,,2013-07-18 15:12:00,
2013-07-18 12:53:00,84.0,-99.9,-100.00,North,-999,-999.0,-999.0,-999,-99.99,,,0.00,,2013-07-18 16:53:00,
2013-07-18 13:02:00,84.0,-99.9,-100.00,North,-999,-999.0,-999.0,-999,-99.99,,,0.00,,2013-07-18 17:02:00,
2013-07-18 13:12:00,84.0,-99.9,-100.00,North,-999,-999.0,-999.0,-999,-99.99,,,0.00,,2013-07-18 17:12:00,
2013-07-18 13:52:00,87.0,-99.9,-100.00,North,-999,-999.0,-999.0,-999,0.00,,,0.00,,2013-07-18 17:52:00,
2013-07-18 14:02:00,87.0,-99.9,-100.00,North,-999,-999.0,-999.0,-999,0.00,,,0.00,,2013-07-18 18:02:00,
2013-07-18 14:12:00,87.0,-99.9,-100.00,North,-999,-999.0,-999.0,-999,0.00,,,0.00,,2013-07-18 18:12:00,
2013-07-18 14:52:00,87.0,-99.9,-100.00,North,-999,-999.0,-999.0,-999,0.00,,,-99.99,,2013-07-18 18:52:00,
2013-07-18 15:02:00,87.0,-99.9,-100.00,North,-999,-999.0,-999.0,-999,0.00,,,-99.99,,2013-07-18 19:02:00,
2013-07-18 15:11:00,87.0,-99.9,-100.00,North,-999,-999.0,-999.0,-999,0.00,,,-99.99,,2013-07-18 19:11:00,
2013-07-18 15:53:00,89.0,-99.9,-100.00,North,-999,-999.0,-999.0,-999,0.00,,,0.00,,2013-07-18 19:53:00,
2013-07-18 16:02:00,89.0,-99.9,-100.00,North,-999,-999.0,-999.0,-999,0.00,,,0.00,,2013-07-18 20:02:00,
2013-07-18 16:11:00,89.0,-99.9,-100.00,North,-999,-999.0,-999.0,-999,0.00,,,0.00,,2013-07-18 20:11:00,
2013-07-18 16:52:00,81.0,-99.9,-100.00,North,-999,-999.0,-999.0,-999,0.05,,,0.05,,2013-07-18 20:52:00,
2013-07-18 17:02:00,81.0,-99.9,-100.00,North,-999,-999.0,-999.0,-999,0.05,,,0.05,,2013-07-18 21:02:00,
2013-07-18 17:11:00,81.0,-99.9,-100.00,North,-999,-999.0,-999.0,-999,0.05,,,0.05,,2013-07-18 21:11:00,
2013-07-18 17:52:00,78.0,-99.9,-100.00,North,-999,-999.0,-999.0,-999,0.00,,,0.05,,2013-07-18 21:52:00,
2013-07-18 18:01:00,78.0,-99.9,-100.00,North,-999,-999.0,-999.0,-999,0.00,,,0.05,,2013-07-18 22:01:00,
2013-07-18 18:11:00,78.0,-99.9,-100.00,North,-999,-999.0,-999.0,-999,0.00,,,0.05,,2013-07-18 22:11:00,
2013-07-18 18:53:00,76.0,-99.9,-100.00,North,-999,-999.0,-999.0,-999,0.00,,,0.05,,2013-07-18 22:53:00,
2013-07-18 19:02:00,76.0,-99.9,-100.00,North,-999,-999.0,-999.0,-999,0.00,,,0.05,,2013-07-18 23:02:00,
2013-07-18 19:12:00,76.0,-99.9,-100.00,North,-999,-999.0,-999.0,-999,0.00,,,0.05,,2013-07-18 23:12:00,
2013-07-18 20:52:00,74.0,-99.9,-100.00,North,-999,-999.0,-999.0,-999,-99.99,,,0.07,,2013-07-19 00:52:00,
2013-07-18 21:01:00,74.0,-99.9,-100.00,North,-999,-999.0,-999.0,-999,-99.99,,,0.07,,2013-07-19 01:01:00,
2013-07-18 21:11:00,74.0,-99.9,-100.00,North,-999,-999.0,-999.0,-999,-99.99,,,0.07,,2013-07-19 01:11:00,
2013-07-18 22:52:00,72.0,-99.9,-100.00,North,-999,-999.0,-999.0,-999,-99.99,,,0.31,,2013-07-19 02:52:00,
2013-07-18 23:01:00,72.0,-99.9,-100.00,North,-999,-999.0,-999.0,-999,-99.99,,,0.31,,2013-07-19 03:01:00,
2013-07-18 23:11:00,72.0,-99.9,-100.00,North,-999,-999.0,-999.0,-999,-99.99,,,0.31,,2013-07-19 03:11:00,
2013-07-18 23:52:00,71.0,-99.9,-100.00,North,-999,-999.0,-999.0,-999,0.15,,,0.46,,2013-07-19 03:52:00,